Regional Weather Roundup
Issued by NWS

Home | Current Version | Previous Version | Graphics & Text | Print | Product List | Glossary On
Versions: 1 2 3 4 5 6 7 8 9 10 11 12 13 14 15 16 17 18 19 20 21 22 23 24 25 26 27 28 29 30 31 32 33 34 35 36 37 38 39 40 41 42 43 44 45 46 47 48 49
000
ASUS45 KCYS 041310
RWRWY

WYOMING REGIONAL WEATHER ROUNDUP
NATIONAL WEATHER SERVICE CHEYENNE WY
700 AM MDT MON MAY 04 2015

NOTE:  "FAIR" INDICATES FEW OR NO CLOUDS BELOW 12,000 FEET
WITH NO SIGNIFICANT WEATHER AND/OR OBSTRUCTIONS TO VISIBILITY.

WYZ001-041400-
YELLOWSTONE NATIONAL PARK

CITY           SKY/WX    TMP DP  RH WIND       PRES   REMARKS
LK YELLOWSTONE   N/A     27  25  92 CALM      30.14R
W YELLOWSTONE  NOT AVBL

$$
WYZ002>013-054>058-071-098>099-041400-
NORTHERN WYOMING

CITY           SKY/WX    TMP DP  RH WIND       PRES   REMARKS
JACKSON        CLEAR     30  28  93 CALM      30.10R
CODY           FAIR      43  37  81 S5        30.03R
GREYBULL       FAIR      47  39  74 CALM      30.01R
WORLAND        FAIR      46  41  82 S6        30.01R
SHERIDAN       FAIR      50  42  74 SE17      30.01R
BUFFALO        CLOUDY    48  43  82 S12       30.06S
GILLETTE       CLOUDY    47  38  71 SE21G29   30.08R
HULETT         RAIN      46  45  93 S7        30.16R
NEWCASTLE      CLOUDY    45  36  70 SE15G24   30.15R

$$
WYZ014>020-022>026-101>103-041400-
CENTRAL WYOMING

CITY           SKY/WX    TMP DP  RH WIND       PRES   REMARKS
BIG PINEY      FAIR      32  30  92 CALM      30.11R
PINEDALE       FAIR      32  32 100 CALM      30.12R
DUBOIS         FAIR      32  30  93 NW12      30.10S WCI  23
LANDER         FAIR      45  37  73 W8        30.05R
RIVERTON       FAIR      46  41  82 N3        30.06R
CASPER         CLOUDY    43  43 100 W3        30.06S FOG
DOUGLAS        PTSUNNY   47  40  76 SE18      30.08S

$$
WYZ021-027>030-104>119-041400-
SOUTHERN WYOMING

CITY           SKY/WX    TMP DP  RH WIND       PRES   REMARKS
EVANSTON       FAIR      42  37  82 NE3       30.08R
KEMMERER       FAIR      36  34  93 N9        30.10R WCI  29
FORT BRIDGER   SUNNY     41  41 100 CALM      30.12R
ROCK SPRINGS   FAIR      41  37  86 E5        30.09R
DIXON          FAIR      41  38  89 CALM      30.11R
RAWLINS        FAIR      38  36  92 CALM      30.10R
SARATOGA       FAIR      37  37 100 CALM      30.11R
LARAMIE        CLOUDY    43  41  93 SE23G31   30.10R
CHEYENNE       CLOUDY    45  38  76 S12       30.14R
TORRINGTON     CLOUDY    50  38  63 E13       30.12R
PINE BLUFFS    CLOUDY    46  37  71 CALM      30.14R

$$



USA.gov is the U.S. government's official web portal to all federal, state and local government web resources and services.